www.pogodaiklimat.ru

Погода и климат >> Архив погоды >> Мексика >> Мерида


АРХИВ ПОГОДЫ в Мериде

Время (UTC), дата Ветер
(напр.,м/с)
 
Видим.   Явления Облачность Т
(С)
Тd
(С)
f
(%)
Тe
(С)
Тes
(С)
Комфортность P
(гПа)
Po
(гПа)
Тmin
(С)
Tmax
(С)
R
(мм)
R24
(мм)
S
(см)
15 12.06 В 2 10 км 5/3 600 м
[Cu hum Ac trans]
+29.9 +27.9 89 +49 +56 опасность
перегрева
1014.6 1013.3
18 12.06 В 2 10 км 5/5 600 м
[Cu hum]
+34.2 +28.4 72 +56 +67 опасность
перегрева
1013.9 1012.6 +22.4 +34.2
21 12.06 ЮЗ 1 10 км 5/4 600 м
[Cu hum Ac trans]
+35.6 +27.9 65 +56 +64 опасность
перегрева
1011.5 1010.2
00 13.06 Ю 3 10 км дождь 10/10 600 м
[Sc]
+28.0 +23.7 77 +38 +38 очень
душно
1014.3 1013.1 +22.8 +36.2 31
03 13.06 В 2 5000 м слаб. дождь 10/10 600 м
[Sc]
+24.0 +24.0 100 +33 +33 очень
душно
1015.5 1014.3 25
06 13.06 В 1 5000 м слаб. морось {дождь} 8/8 600 м
[]
+24.5 +23.8 96 +33 +33 очень
душно
1016.3 1015.0 +36.2 26
09 13.06 В 1 5000 м {морось} 6/0 2000 м
[]
+24.5 +23.6 95 +33 +33 очень
душно
1013.9 1012.6 0.0
12 13.06 ЮВ 1 10 км 9/0 2000 м
[Ac As Cs]
+24.3 +23.9 98 +33 +34 очень
душно
1013.9 1012.7 +23.6 +36.2
15 13.06 В 2 10 км 9/6 600 м
[Sc diur, vesp Ac trans]
+27.4 +25.4 89 +40 +43 очень
душно
1015.8 1014.6
18 13.06 В 1 10 км 8/4 600 м
[Sc Ac trans Ci fib]
+32.5 +27.6 75 +52 +62 опасность
перегрева
1015.2 1013.9 +23.6 +32.5
21 13.06 С 2 10 км {морось} 9/5 600 м
[Cu med, cong Ac trans Ci fib]
+31.3 +25.6 72 +46 +50 опасность
перегрева
1012.7 1011.4 1
06 14.06 ЮВ 1 5000 м слаб. морось {дождь} 8/0 2000 м
[]
+24.2 +23.6 96 +33 +33 очень
душно
1016.4 1015.1 +34.3 5
09 14.06 ЮВ 1 5000 м 8/0 2000 м
[]
+24.3 +23.7 96 +33 +33 очень
душно
1014.3 1013.0
12 14.06 С 1 10 км 10/0 2000 м
[As op]
+24.8 +23.7 94 +34 +34 очень
душно
1016.1 1014.9 +23.0 +34.3
15 14.06 В 4 10 км 10/0 2000 м
[As op]
+28.5 +25.6 84 +42 +44 опасность
перегрева
1016.8 1015.5
18 14.06 ЮВ 3 10 км 10/8 600 м
[Cu hum Ac trans]
+30.3 +26.9 82 +47 +49 опасность
перегрева
1016.5 1015.2 +23.0 +30.3
21 14.06 В 1 10 км дождь 10/10 600 м
[Sc]
+28.0 +26.3 91 +43 +43 опасность
перегрева
1014.5 1013.2 6
00 15.06 В 3 10 км в посл. час морось {дождь} 9/9 600 м
[Sc]
+26.0 +24.6 92 +37 +37 очень
душно
1015.0 1013.7 +23.7 +31.8 0.6
03 15.06 В 2 5000 м 9/0 2000 м
[As op]
+26.0 +24.9 94 +37 +37 очень
душно
1016.1 1014.8
06 15.06 В 2 5000 м 8/0 2000 м
[As op]
+25.7 +24.7 94 +36 +36 очень
душно
1016.7 1015.4 +23.7 +31.8
09 15.06 В 1 5000 м 9/0 2000 м
[]
+25.4 +24.5 95 +36 +36 очень
душно
1014.9 1013.6
12 15.06 СВ 2 10 км 9/0 2000 м
[As op]
+25.4 +24.6 95 +36 +36 очень
душно
1016.2 1015.0 +25.1 +31.8
15 15.06 ЮВ 4 10 км 10/1 600 м
[Cu hum Ac trans]
+27.8 +25.5 87 +41 +44 опасность
перегрева
1016.0 1014.8
18 15.06 В 5 10 км 9/5 600 м
[Cu hum Ac trans]
+31.8 +25.4 69 +46 +49 опасность
перегрева
1014.8 1013.5 +25.1 +31.8
21 15.06 СВ 2 10 км 9/5 600 м
[Cu hum Ac trans]
+31.0 +26.9 79 +48 +52 опасность
перегрева
1012.4 1011.2
00 16.06 СВ 3 10 км {дождь, морось} 9/4 600 м
[Cu hum As op]
+26.5 +22.2 77 +34 +35 очень
душно
1012.3 1011.1 +25.1 +32.6 3
03 16.06 В 3 5000 м 9/9 600 м
[Sc]
+26.4 +23.8 86 +36 +36 очень
душно
1013.8 1012.6
06 16.06 В 1 5000 м в посл. час морось 6/0 2000 м
[]
+26.0 +24.1 89 +36 +36 очень
душно
1014.2 1012.9 +32.6 0.0
09 16.06 В 1 5000 м слаб. морось 8/0 2000 м
[]
+25.8 +24.4 92 +36 +36 очень
душно
1013.0 1011.7 0.0
12 16.06 В 1 10 км {морось} 10/0 2000 м
[Ac trans]
+25.1 +24.7 98 +35 +36 очень
душно
1013.5 1012.2 +25.0 +32.6 0.0
15 16.06 ЮВ 4 10 км 9/6 600 м
[Cu hum Ac trans]
+29.3 +26.1 83 +44 +46 опасность
перегрева
1013.9 1012.7
18 16.06 В 3 10 км 9/4 600 м
[Cu hum Ac trans]
+31.7 +27.2 77 +50 +55 опасность
перегрева
1012.5 1011.3 +25.0 +31.7
21 16.06 ЮВ 1 10 км 9/4 600 м
[Cu hum Ac trans]
+32.4 +27.4 75 +51 +56 опасность
перегрева
1010.6 1009.4
00 17.06 В 4 10 км 8/3 600 м
[Cu hum Ac trans Ci fib]
+31.0 +24.8 70 +44 +44 опасность
перегрева
1010.1 1008.8 +25.0 +33.7
03 17.06 ЮВ 3 5000 м 4/0 2000 м
[Ac trans]
+27.6 +26.5 94 +42 +42 опасность
перегрева
1012.0 1010.8
06 17.06 В 1 5000 м 5/0 2000 м
[Ac trans Ci fib]
+27.7 +23.4 77 +37 +37 очень
душно
1013.1 1011.9 +25.0 +33.7
09 17.06 ЮВ 1 5000 м 5/0 2000 м
[Ac trans Ci fib]
+25.8 +24.2 91 +36 +36 очень
душно
1012.0 1010.7
12 17.06 ЮВ 2 10 км 3/0
[Ci fib]
+25.4 +24.2 93 +35 +36 очень
душно
1012.6 1011.4 +24.5 +33.7
15 17.06 ЮВ 3 10 км 6/5 600 м
[Cu hum Ci fib]
+30.7 +26.1 77 +46 +51 опасность
перегрева
1013.3 1012.1
18 17.06 В 4 10 км 6/4 600 м
[Cu hum Ci fib]
+33.2 +26.0 66 +49 +57 опасность
перегрева
1012.2 1010.9 +24.5 +33.8
21 17.06 ЮВ 3 10 км 8/5 600 м
[Cu hum Ci fib]
+37.0 +27.9 60 +57 +62 опасность
перегрева
1010.6 1009.3
00 18.06 В 2 10 км 6/5 600 м
[Cu hum Ci fib]
+34.8 +21.4 46 +43 +43 опасность
перегрева
1009.8 1008.6 +24.5 +37.0
03 18.06 ЮВ 2 5000 м ясно +30.9 +25.2 72 +45 +45 опасность
перегрева
1012.5 1011.2
09 18.06 В 2 5000 м ясно +26.4 +25.3 94 +38 +38 очень
душно
1012.6 1011.3
12 18.06 ЮВ 1 10 км 8/0
[Cs]
+25.6 +24.7 95 +36 +37 очень
душно
1013.4 1012.2 +25.4 +37.0
15 18.06 ЮВ 4 10 км 8/6 600 м
[Cu hum Ci fib]
+31.4 +26.1 74 +47 +50 опасность
перегрева
1013.9 1012.7
18 18.06 В 5 10 км 5/4 600 м
[Cu hum Ci fib]
+35.8 +25.9 57 +51 +58 опасность
перегрева
1013.3 1012.1 +25.4 +35.8
21 18.06 ЮВ 3 10 км 6/5 600 м
[Cu hum Ci fib]
+37.8 +27.9 57 +57 +62 опасность
перегрева
1011.3 1010.0
00 19.06 ЮВ 2 10 км 6/4 600 м
[Cu hum Ci fib]
+35.9 +27.2 61 +54 +55 опасность
перегрева
1010.4 1009.2 +25.4 +38.2
09 19.06 ЮВ 2 5000 м ясно +26.4 +24.8 91 +38 +38 очень
душно
1013.2 1011.9
12 19.06 ЮВ 1 10 км 1/0
[Ci fib]
+25.4 +24.8 96 +36 +36 очень
душно
1013.7 1012.4 +25.2 +38.2

 

Местоположение метеостанции Мерида (Мексика): широта 20.98 долгота -89.65 высота над уровнем моря 9 м.

В архиве по умолчанию представлена погода в Мериде за последнюю неделю. Архивные данные за месяц целиком и за предыдущие месяцы, начиная с января 2011 года, Вы можете получить, выбрав интересующий диапазон дат из раскрывающегося списка и нажав кнопку "Ввод!".


*Определитесь, кто Вы:
робот инопланетянин человек

Внимание! Время в таблицах - всемирное. Для получения местного времени необходимо прибавить поправку, которая равна -6 ч.

Смотрите также архив погоды в соседних городах и на ближайших метеорологических станциях:

Погода в Мериде 2 (Мексика) (6 км)
Погода в Прогресо (Мексика) (36 км)
Погода в Вальядолиде (Мексика) (154 км)
Погода в Кампече (Мексика) (157 км)
Погода в Фелипе-Каррильо-Пуэрто (Мексика) (231 км)
Погода в Четумале (Мексика) (312 км)
Погода в Белизе (Белиз) (409 км)
Погода во Флоресе (Гватемала) (452 км)
Погода в Вильяэрмосе (Мексика) (479 км)
Погода в Кабо-Сан-Антонио (Куба) (497 км)

Пояснения к столбцам:

Ветер - указаны скорость ветра в м/с - средняя за 10 мин, порывы в срок и между сроками (в фигурных скобках) и направление, откуда дует ветер: С - северный, СВ - северо-восточный, В - восточный, ЮВ - юго-восточный, Ю - южный, ЮЗ - юго-западный, З - западный, СЗ - северо-западный.
Видимость - горизонтальная дальность видимости в метрах или километрах. При видимости от 1 до 10 км при отсутствии осадков обычно наблюдается дымка, при ухудшении видимости до 1 км и менее - туман. В сухую погоду видимость может ухудшаться дымом, пылью или мглою.
Явления - указаны атмосферные явления, наблюдавшиеся в срок или в последний час перед сроком; фигурными скобками обозначены явления, наблюдавшиеся между сроками (за 1-3 часа до срока); квадратными скобками обозначены град или гололедные отложения с указанием их диаметра в мм.
Облачность - указаны через наклонную черту общая и нижняя облачность в баллах и высота нижней границы облаков в метрах; квадратными скобками обозначены формы облаков: Ci - перистые, Cs - перисто-слоистые, Cc - перисто-кучевые, Ac - высококучевые, As - высокослоистые, Sc - слоисто-кучевые, Ns - слоисто-дождевые, Cu - кучевые, Cb - кучево-дождевые. Подробнее классификацию облаков см. в Атласе облаков (PDF).
T - Температура воздуха - температура, измеренная на высоте 2 м над землей.
Td - Температура точки росы - температура, при понижении до которой содержащийся в воздухе водяной пар достигнет насыщения.
f - Относительная влажность воздуха - влажноcть воздуха, измеренная на высоте 2 м над землей.
Te - Эффективная температура - температура, которую ощущает одетый по сезону человек в тени. Характеристика душности погоды. При расчете учитывается влияние влажности воздуха и скорости ветра на теплоощущения человека.
Tes - Эффективная температура на солнце - температура, которую ощущает человек, с поправкой на солнечный нагрев. Характеристика знойности погоды. Зависит от высоты солнца над горизонтом, облачности и скорости ветра. Ночью, в пасмурную погоду, а также при ветре 12 м/с и более поправка равна нулю.
P - Атмосферное давление - приведенное к уровню моря атмосферное давление.
Po - Атмосферное давление - измеренное на уровне метеостанции атмосферное давление.
Tmin - Минимальная температура - минимум температуры воздуха на высоте 2 м над землей.
Tmax - Максимальная температура - максимум температуры воздуха на высоте 2 м над землей.
R - Количество осадков - Количество выпавших осадков за период времени, мм. При наведении курсора мыши на число - период времени, за который выпало указанное количество осадков.
R24 - Количество осадков - Количество выпавших осадков за 24 часа, мм.
S - Снежный покров - Высота снежного покрова, см. При наведении курсора мыши на число - состояние снежного покрова и степень покрытия местности в баллах.